SCP
3 3 3 3 3 3 3 3 4 4 4 4 4 3 3 2 2 2 1 1 1 1 1 1 1 1 1 1 1 0 0 0 0 0 0 0 0 0 0 0 0 0 0
2 2 3 3 3 3 3 3 4 4 5 5 5 4 3 3 2 2 2 2 1 1 1 1 1 1 1 1 1 0 0 0 0 0 0 0 0 0 0 0 0 0 0
2 2 2 3 3 3 3 3 3 4 5 8 9 7 4 3 3 3 3 3 2 2 2 1 1 1 1 1 1 1 1 1 1 1 1 0 0 0 0 0 0 0 0
1 2 2 3 3 3 3 3 3 3 5 9 12 9 5 4 3 3 3 3 3 2 2 2 1 1 1 1 1 1 1 1 1 1 1 1 0 0 0 0 0 0 0
1 1 2 3 4 4 4 4 4 4 5 8 10 8 5 4 4 4 4 3 3 2 2 2 1 1 1 1 1 1 1 1 1 1 1 1 0 0 0 0 0 0 0
1 1 2 3 4 4 4 4 4 5 7 7 7 7 5 4 4 5 4 2 2 2 2 2 2 2 2 1 1 1 1 1 1 1 1 1 1 0 0 0 0 0 0
1 1 2 3 4 4 4 4 4 6 9 6 5 5 5 4 4 4 3 2 2 2 2 2 2 2 2 2 2 1 1 1 1 1 1 1 1 1 0 0 0 0 0
1 1 1 2 2 3 3 3 3 5 6 5 4 4 4 3 3 3 3 2 2 2 2 3 2 2 2 2 2 2 1 1 1 1 1 1 1 1 0 0 0 0 0
0 0 1 1 1 1 2 2 2 3 3 3 3 3 3 3 3 3 2 2 2 2 2 2 2 2 2 2 2 1 1 1 1 1 1 1 1 1 0 0 0 0 0
0 0 0 0 0 1 1 1 1 2 2 3 3 3 2 2 2 2 2 1 1 1 1 1 1 2 2 2 1 1 1 1 1 1 1 1 1 0 0 0 0 0 0
0 0 0 0 0 0 0 0 1 1 2 2 2 2 2 2 2 2 2 1 1 1 1 1 1 1 1 1 1 1 1 1 0 0 1 1 1 0 0 0 0 0 0
0 0 0 0 0 0 0 0 0 1 1 2 2 3 3 3 2 2 2 1 1 1 1 1 1 1 0 0 0 0 0 0 0 0 0 0 0 0 0 0 0 0 0
0 0 0 0 0 0 0 0 1 1 2 2 3 3 3 3 2 2 1 1 1 1 1 0 0 0 0 0 0 0 0 0 0 0 0 0 0 0 0 0 0 0 0
0 0 0 0 0 0 0 0 1 2 2 2 2 3 3 2 2 1 1 0 0 0 0 0 0 0 0 0 0 0 0 0 0 0 0 0 0 0 0 0 0 0 0
0 0 0 0 0 0 0 0 1 1 2 1 1 1 1 1 1 0 0 0 0 0 0 0 0 0 0 0 0 0 0 0 0 0 0 0 0 0 0 0 0 0 0
0 0 0 0 0 0 0 0 0 0 1 0 0 0 0 0 0 0 0 0 0 0 0 0 0 0 0 0 0 0 0 0 0 0 0 0 0 0 0 0 0 0 0
0 0 0 0 0 0 0 0 0 0 0 0 0 0 0 0 0 0 0 0 0 0 0 0 0 0 0 0 0 0 0 0 0 0 0 0 0 0 0 0 0 0 0
0 0 0 0 0 0 0 0 0 0 0 0 0 0 0 0 0 0 0 0 0 0 0 0 0 0 0 0 0 0 0 0 0 0 0 0 0 0 0 0 0 0 0
0 0 0 0 0 0 0 0 0 0 0 0 0 0 0 0 0 0 0 0 0 0 0 0 0 0 0 0 0 0 0 0 0 0 0 0 0 0 0 0 0 0 0
0 0 0 0 0 0 0 0 0 0 0 0 0 0 0 0 0 0 0 0 0 0 0 0 0 0 0 0 0 0 0 0 0 0 0 0 0 0 0 0 0 0 0
0 0 0 0 0 0 0 0 0 0 0 0 0 0 0 0 0 0 0 0 0 0 0 0 0 0 0 0 0 0 0 0 0 0 0 0 0 0 0 0 0 0 0
0 0 0 0 0 0 0 0 0 0 0 0 0 0 0 0 0 0 0 0 0 0 0 0 0 0 0 0 0 0 0 0 0 0 0 0 0 0 0 0 0 0 0
0 0 0 0 0 0 0 0 0 0 0 0 0 0 0 0 0 0 0 0 0 0 0 0 0 0 0 0 0 0 0 0 0 0 0 0 0 0 0 0 0 0 0
0 0 0 0 0 0 0 0 0 0 0 0 0 0 0 0 0 0 0 0 0 0 0 0 0 0 0 0 0 0 0 0 0 0 0 0 0 0 0 0 0 0 0
0 0 0 0 0 0 0 0 0 0 0 0 0 0 0 0 0 0 0 0 0 0 0 0 0 0 0 0 0 0 0 0 0 0 0 0 0 0 0 0 0 0 0
0 0 0 0 0 0 0 0 0 0 0 0 0 0 0 0 0 0 0 0 0 0 0 0 0 0 0 0 0 0 0 0 0 0 0 0 0 0 0 0 0 0 0
Wind_Speed
7 6 6 6 5 4 5 7 7 7 6 4 5 4 4 3 3 3 4 4 4 5 4 3 3 3 3 3 4 3 4 3 2 1 3 4 6 6 5 4 3 3 3
6 6 6 6 6 6 5 5 7 7 6 5 4 3 4 3 3 3 3 4 4 4 4 4 3 3 3 4 4 3 2 2 3 2 2 3 3 4 4 3 3 2 1
8 7 7 7 6 5 6 5 6 7 7 6 4 3 3 2 2 3 3 4 4 4 4 4 3 3 3 3 4 4 4 3 3 3 3 3 3 2 1 1 2 2 1
8 7 7 8 7 6 5 5 5 6 6 7 6 6 5 4 5 4 4 4 4 4 4 4 3 3 3 3 3 3 3 3 3 3 4 4 2 1 2 2 1 1 1
7 7 7 7 7 6 5 4 5 5 6 7 7 6 5 4 3 4 5 4 3 3 3 3 3 3 3 3 3 3 3 3 4 3 2 3 3 3 3 4 2 1 1
7 6 6 7 6 6 5 4 5 5 5 6 6 6 6 5 4 4 4 3 3 3 3 3 3 2 2 2 2 2 3 3 4 3 3 3 3 3 4 5 4 3 2
6 5 6 6 7 7 5 5 6 5 5 5 5 5 5 5 5 4 4 4 3 2 3 3 2 2 2 2 2 2 2 3 3 3 3 3 3 2 2 3 3 3 2
5 5 6 6 6 6 6 5 6 5 5 5 4 4 4 3 3 3 3 3 2 3 3 2 2 2 1 1 1 1 2 2 3 3 2 2 2 1 2 2 2 3 2
4 4 5 5 5 6 6 6 6 5 4 4 5 4 4 4 3 3 3 3 2 2 2 2 2 1 1 1 2 2 2 2 2 2 2 1 1 1 1 1 2 3 3
4 4 4 4 4 4 4 5 5 5 4 4 4 4 4 4 4 4 4 4 3 2 2 2 2 1 1 1 1 1 1 2 1 1 1 1 1 0 0 1 1 2 3
4 4 4 4 4 4 4 4 5 5 5 4 4 4 4 4 4 4 4 3 3 2 2 2 2 1 1 1 1 1 1 2 1 1 1 1 1 1 0 0 1 1 1
3 4 4 4 4 4 4 4 5 5 5 4 5 4 4 5 5 4 4 3 3 3 2 2 2 1 1 1 1 1 1 1 1 1 1 1 1 1 0 0 1 1 1
3 3 4 5 5 4 4 4 5 5 5 5 5 5 4 4 4 4 4 3 3 3 3 2 2 2 2 2 2 2 2 2 2 2 1 1 1 1 0 1 0 0 0
2 3 3 4 4 4 5 5 5 5 5 5 5 5 4 4 4 4 4 3 3 3 3 3 2 3 2 2 2 2 2 3 3 3 2 2 2 1 1 1 1 0 1
2 3 3 4 5 5 5 5 5 5 5 5 5 5 5 5 4 4 4 3 3 3 3 3 2 2 2 2 2 2 3 3 3 3 3 3 4 4 2 2 1 1 1
2 2 3 3 4 5 5 5 5 5 6 5 5 5 5 5 4 4 4 4 3 3 3 2 2 2 2 3 3 3 2 3 3 3 3 3 3 4 4 4 4 3 2
1 1 2 3 3 4 5 6 5 6 6 5 5 5 5 5 4 4 4 3 3 3 3 2 2 2 3 3 3 4 2 2 2 2 2 2 2 3 2 3 5 5 5
2 1 1 1 2 3 4 5 5 6 6 5 5 5 5 5 4 4 4 3 3 3 2 2 2 2 3 4 4 4 2 2 2 2 2 2 2 2 2 2 2 2 2
3 2 1 1 2 3 4 5 5 5 5 5 5 6 6 6 5 5 4 3 3 2 2 2 2 2 3 4 4 4 1 2 1 1 1 2 2 3 3 2 1 1 1
3 3 3 3 2 2 4 4 4 4 5 5 5 5 5 5 5 5 4 3 3 3 3 2 2 3 3 5 5 4 1 2 1 1 1 2 2 3 3 2 1 1 0
4 4 3 3 2 2 3 3 3 3 3 4 4 5 5 5 5 4 4 4 4 4 3 3 2 2 3 5 6 5 2 2 2 1 1 2 4 3 3 2 1 2 1
5 4 3 3 3 3 3 2 2 2 4 4 4 4 4 4 4 4 4 4 4 4 3 3 2 2 3 4 5 7 6 4 2 2 1 2 4 4 4 2 3 3 1
4 3 3 3 3 2 3 2 1 3 3 3 3 3 4 4 4 5 5 4 4 4 4 3 3 3 2 4 8 8 8 7 3 2 4 4 5 4 3 4 5 3 1
3 3 2 2 2 2 2 2 1 2 3 3 3 4 4 4 4 4 4 4 5 4 4 4 4 3 3 3 3 3 4 6 4 3 4 5 5 4 4 4 3 2 3
3 2 2 1 1 1 1 1 1 1 2 2 3 3 4 4 4 4 4 5 5 5 5 5 4 4 4 6 9 5 4 4 4 3 2 2 2 2 2 2 3 3 3
2 2 2 1 1 1 1 1 0 1 2 2 3 3 3 3 3 3 3 5 5 7 9 7 6 5 7 8 10 11 10 10 9 5 3 3 3 4 4 4 4 3 4
Wind_Direction
199 182 172 158 158 167 169 165 165 167 158 157 160 160 168 162 150 148 155 164 167 165 164 170 185 184 179 189 197 194 212 223 226 258 281 266 244 235 226 215 213 219 207
204 184 167 160 164 170 171 167 162 161 162 164 162 158 155 161 162 157 165 171 169 168 171 173 181 185 185 196 204 197 196 210 194 190 240 290 297 260 224 192 191 206 192
201 188 175 163 162 169 171 173 166 163 162 159 148 141 137 139 159 171 177 182 179 176 173 181 180 185 186 197 204 198 191 210 219 201 198 220 250 307 305 208 182 182 167
202 193 179 166 163 168 167 169 164 161 159 157 158 163 170 177 184 176 176 177 177 175 177 183 189 193 193 203 212 205 201 200 219 226 226 225 216 233 290 300 254 173 162
199 186 177 164 158 155 155 159 157 159 158 162 167 173 179 178 168 163 168 173 173 170 167 178 189 201 201 206 210 209 211 208 212 214 216 236 247 224 227 256 256 254 227
190 182 164 151 148 145 145 154 156 160 156 162 168 177 179 172 167 172 168 168 164 165 167 179 189 199 201 202 206 220 224 223 226 224 212 205 211 213 219 238 237 232 216
173 170 160 154 152 152 156 162 164 164 161 162 168 174 176 175 179 175 170 166 166 169 181 180 190 198 204 207 205 212 236 232 230 228 228 229 232 213 218 238 247 241 209
159 162 161 154 152 156 161 164 164 163 163 161 161 156 151 152 153 145 144 154 154 157 154 168 179 181 184 206 211 215 227 232 232 236 236 241 244 232 217 226 236 252 236
149 149 145 145 151 157 165 167 161 157 156 152 142 140 136 133 131 122 118 117 107 108 116 136 140 153 177 197 195 210 223 221 221 221 217 223 247 245 240 233 219 227 248
140 139 141 143 141 145 149 153 153 149 138 131 132 132 125 122 122 117 111 106 104 108 125 133 138 144 167 187 195 206 211 197 207 204 192 207 215 225 247 240 241 223 231
134 137 134 132 128 126 131 132 133 128 125 122 115 112 108 106 105 106 109 111 109 110 107 106 103 113 163 182 185 200 183 182 175 166 166 175 139 159 193 206 211 225 216
115 126 133 132 133 136 136 137 134 128 125 122 114 111 108 105 104 104 101 95 93 91 91 92 107 118 92 65 118 129 116 143 159 159 150 148 120 121 98 152 178 200 206
128 138 145 149 150 150 148 142 136 132 127 122 120 117 115 112 111 110 104 97 95 94 90 88 95 87 73 63 64 84 94 95 91 88 100 101 115 120 103 108 110 252 126
159 162 156 155 152 152 151 146 137 132 131 128 128 125 120 116 112 109 104 99 98 99 95 88 82 77 70 69 70 82 91 91 81 72 73 69 87 108 131 113 83 60 79
191 176 166 161 157 153 148 143 137 133 131 129 127 125 118 114 112 110 109 107 103 101 100 95 89 85 79 79 88 98 107 107 98 84 78 72 75 72 75 83 76 79 101
201 176 164 158 160 156 152 146 142 137 133 134 135 130 127 125 126 126 124 121 119 113 108 105 102 97 94 103 111 112 109 119 123 120 108 100 83 82 76 76 75 81 107
206 168 167 166 163 160 154 155 149 137 137 141 142 140 139 139 141 139 135 137 134 123 117 116 114 110 112 124 124 120 117 125 127 130 126 117 109 90 80 74 67 60 60
35 44 101 148 157 148 143 143 142 144 148 151 151 149 148 148 147 145 149 145 136 136 137 132 132 129 133 139 137 131 111 112 119 124 130 131 125 113 102 89 71 58 42
39 35 34 86 125 138 139 138 144 147 153 161 162 159 157 156 157 159 157 149 142 145 147 144 152 151 151 154 153 147 128 133 137 126 122 127 143 160 140 114 102 70 33
32 33 31 48 70 105 123 137 148 152 165 166 160 155 157 161 164 164 157 150 151 159 156 160 172 171 170 176 177 173 160 161 164 158 169 179 175 180 169 142 148 163 189
21 28 40 50 54 78 106 126 139 158 150 136 139 147 153 156 157 156 154 153 154 155 163 174 185 183 183 186 191 193 174 180 181 187 200 203 196 201 202 193 184 210 191
18 22 33 39 43 61 90 107 125 122 118 127 139 148 150 154 153 153 157 158 158 164 178 184 195 198 193 192 201 205 203 195 182 194 198 201 205 217 218 220 223 225 221
17 21 31 34 33 45 79 103 104 107 120 135 151 158 158 159 160 164 167 167 172 180 189 192 203 208 196 204 212 215 213 212 200 193 203 211 219 232 231 235 237 231 207
5 11 21 32 25 31 54 94 124 133 144 162 172 173 169 171 175 175 175 180 188 193 196 199 206 206 202 201 202 208 215 213 213 208 219 228 235 231 230 240 241 215 209
349 357 360 0 4 20 43 64 97 138 163 178 187 184 181 180 185 188 192 197 202 198 198 204 199 200 212 214 204 194 198 192 197 183 186 202 212 218 222 223 220 215 221
333 331 332 339 346 356 33 74 89 175 189 195 195 190 186 187 186 190 205 213 212 214 216 214 208 214 217 213 212 213 215 215 210 200 203 215 219 221 223 224 224 219 220